Location: Cazarilh
(42.9578°N, 0.5819°E)
Time: 21:39:49
(UTC+00:00)

CZ-2C R/B - Pass Details

Date: 11 December 2019
Orbit: 639 x 705 km, 98.4° (Epoch: 26 January)

Event Time Altitude Azimuth Distance (km) Brightness Sun altitude
Rises 06:23:46 0° 157° (SSE) 3,050 7.9 -9.7°
Reaches altitude 10° 06:26:00 10° 155° (SSE) 2,146 7.1 -9.4°
Maximum altitude 06:30:40 66° 73° (ENE) 765 4.2 -8.6°
Drops below altitude 10° 06:35:25 10° 352° (N) 2,183 6.1 -7.8°
Sets 06:37:42 0° 350° (N) 3,108 6.8 -7.4°
